QPF
0.01 0.01 0.01 0.01 0.01 0.03 0.03 0.02 0.01 0.01 0.02 0.03 0.02 0.02 0.02 0.01 0.01 0.01 0.00 0.00 0.01 0.01 0.01 0.01 0.01 0.02 0.03 0.03 0.03 0.03 0.02 0.02 0.03 0.03 0.02 0.02 0.03 0.03 0.03 0.02 0.02 0.03 0.03 0.03
0.01 0.01 0.01 0.01 0.01 0.01 0.02 0.02 0.01 0.01 0.01 0.02 0.02 0.02 0.01 0.01 0.01 0.00 0.01 0.00 0.00 0.00 0.01 0.01 0.01 0.02 0.01 0.02 0.03 0.03 0.02 0.02 0.03 0.04 0.03 0.02 0.03 0.03 0.03 0.02 0.02 0.02 0.02 0.02
0.01 0.01 0.01 0.01 0.02 0.01 0.01 0.01 0.01 0.00 0.00 0.01 0.01 0.01 0.01 0.01 0.00 0.00 0.00 0.00 0.00 0.00 0.00 0.01 0.01 0.01 0.02 0.02 0.02 0.01 0.01 0.02 0.03 0.04 0.04 0.04 0.04 0.04 0.04 0.03 0.02 0.02 0.02 0.02
0.02 0.02 0.02 0.01 0.01 0.01 0.01 0.01 0.00 0.00 0.00 0.00 0.00 0.00 0.00 0.00 0.00 0.00 0.00 0.00 0.01 0.01 0.00 0.01 0.01 0.01 0.01 0.02 0.02 0.02 0.02 0.02 0.03 0.03 0.03 0.04 0.05 0.05 0.05 0.03 0.02 0.02 0.02 0.01
0.01 0.02 0.02 0.01 0.01 0.01 0.01 0.01 0.01 0.01 0.01 0.01 0.00 0.00 0.00 0.00 0.00 0.00 0.00 0.00 0.00 0.01 0.01 0.01 0.01 0.01 0.01 0.02 0.02 0.02 0.03 0.03 0.04 0.05 0.04 0.04 0.05 0.04 0.04 0.03 0.02 0.03 0.03 0.02
0.01 0.01 0.01 0.01 0.01 0.01 0.01 0.01 0.01 0.01 0.01 0.01 0.01 0.00 0.00 0.00 0.00 0.00 0.00 0.00 0.00 0.00 0.01 0.01 0.01 0.01 0.01 0.01 0.02 0.02 0.03 0.04 0.04 0.04 0.04 0.04 0.04 0.05 0.07 0.06 0.05 0.04 0.04 0.03
0.01 0.01 0.00 0.00 0.01 0.01 0.01 0.01 0.01 0.01 0.01 0.01 0.01 0.01 0.00 0.00 0.00 0.00 0.00 0.00 0.00 0.00 0.00 0.01 0.01 0.02 0.02 0.02 0.02 0.03 0.02 0.02 0.03 0.03 0.03 0.04 0.04 0.05 0.05 0.06 0.07 0.07 0.05 0.04
0.02 0.02 0.01 0.00 0.00 0.01 0.01 0.01 0.00 0.00 0.01 0.01 0.01 0.01 0.00 0.00 0.00 0.00 0.00 0.00 0.00 0.00 0.01 0.01 0.01 0.01 0.02 0.02 0.02 0.03 0.03 0.03 0.03 0.02 0.02 0.03 0.04 0.04 0.04 0.04 0.05 0.06 0.06 0.05
0.01 0.01 0.01 0.00 0.00 0.00 0.01 0.01 0.01 0.01 0.01 0.01 0.01 0.01 0.01 0.00 0.00 0.00 0.00 0.00 0.00 0.00 0.00 0.00 0.00 0.01 0.01 0.02 0.02 0.03 0.04 0.04 0.03 0.03 0.02 0.02 0.03 0.04 0.03 0.03 0.03 0.03 0.02 0.03
0.00 0.00 0.00 0.00 0.00 0.00 0.01 0.01 0.01 0.01 0.01 0.01 0.01 0.01 0.01 0.01 0.00 0.00 0.00 0.00 0.00 0.00 0.00 0.01 0.01 0.01 0.01 0.02 0.02 0.02 0.03 0.03 0.03 0.03 0.03 0.03 0.03 0.03 0.03 0.02 0.02 0.02 0.01 0.02
0.01 0.00 0.00 0.00 0.00 0.00 0.00 0.00 0.00 0.01 0.01 0.02 0.01 0.01 0.01 0.01 0.00 0.00 0.00 0.00 0.00 0.00 0.01 0.01 0.01 0.01 0.01 0.01 0.02 0.02 0.03 0.03 0.04 0.04 0.04 0.04 0.02 0.02 0.02 0.02 0.02 0.02 0.01 0.01
0.01 0.00 0.00 0.01 0.00 0.00 0.00 0.00 0.00 0.00 0.01 0.01 0.01 0.01 0.02 0.01 0.01 0.01 0.00 0.00 0.00 0.00 0.00 0.01 0.01 0.01 0.01 0.02 0.02 0.02 0.02 0.03 0.03 0.03 0.02 0.02 0.01 0.01 0.01 0.01 0.01 0.01 0.01 0.01
0.00 0.00 0.00 0.01 0.00 0.00 0.00 0.00 0.00 0.00 0.00 0.01 0.01 0.01 0.01 0.02 0.02 0.01 0.01 0.00 0.00 0.00 0.01 0.01 0.00 0.01 0.01 0.02 0.02 0.02 0.03 0.04 0.04 0.04 0.03 0.02 0.02 0.01 0.01 0.01 0.01 0.01 0.01 0.01
0.00 0.00 0.00 0.00 0.00 0.00 0.00 0.00 0.00 0.00 0.00 0.00 0.00 0.00 0.00 0.01 0.01 0.01 0.01 0.00 0.00 0.00 0.01 0.01 0.01 0.01 0.01 0.02 0.02 0.02 0.02 0.03 0.04 0.03 0.03 0.02 0.02 0.01 0.01 0.01 0.01 0.01 0.01 0.01
0.00 0.00 0.00 0.00 0.00 0.00 0.01 0.00 0.00 0.00 0.00 0.00 0.00 0.00 0.00 0.01 0.01 0.01 0.01 0.01 0.01 0.00 0.01 0.01 0.01 0.01 0.01 0.01 0.02 0.02 0.03 0.03 0.03 0.03 0.03 0.03 0.02 0.02 0.03 0.02 0.02 0.01 0.01 0.01
0.00 0.00 0.00 0.00 0.00 0.00 0.00 0.01 0.00 0.00 0.00 0.00 0.00 0.00 0.00 0.00 0.00 0.01 0.00 0.00 0.01 0.01 0.01 0.01 0.01 0.01 0.01 0.01 0.01 0.01 0.02 0.03 0.03 0.03 0.03 0.02 0.02 0.03 0.04 0.03 0.03 0.03 0.02 0.02
0.00 0.00 0.00 0.00 0.00 0.00 0.00 0.00 0.00 0.00 0.00 0.00 0.00 0.00 0.00 0.00 0.00 0.00 0.00 0.01 0.01 0.01 0.01 0.01 0.01 0.01 0.01 0.01 0.01 0.01 0.01 0.01 0.02 0.02 0.03 0.03 0.03 0.02 0.02 0.02 0.03 0.03 0.03 0.03
0.00 0.00 0.00 0.00 0.00 0.00 0.00 0.00 0.00 0.00 0.01 0.01 0.01 0.00 0.00 0.00 0.01 0.01 0.01 0.01 0.01 0.02 0.02 0.02 0.02 0.01 0.01 0.01 0.01 0.01 0.01 0.01 0.01 0.01 0.02 0.03 0.03 0.03 0.03 0.03 0.03 0.03 0.03 0.02
0.00 0.00 0.00 0.00 0.00 0.00 0.00 0.00 0.00 0.00 0.00 0.00 0.01 0.01 0.01 0.00 0.01 0.01 0.01 0.01 0.01 0.02 0.02 0.02 0.02 0.02 0.02 0.02 0.02 0.02 0.01 0.01 0.01 0.01 0.01 0.02 0.02 0.02 0.03 0.03 0.03 0.03 0.03 0.03
0.00 0.00 0.00 0.00 0.00 0.00 0.00 0.00 0.00 0.00 0.00 0.01 0.01 0.01 0.00 0.00 0.00 0.01 0.01 0.02 0.02 0.03 0.03 0.03 0.03 0.03 0.03 0.03 0.02 0.02 0.02 0.02 0.02 0.02 0.02 0.02 0.02 0.02 0.02 0.02 0.03 0.03 0.03 0.03
0.00 0.00 0.00 0.00 0.00 0.00 0.00 0.00 0.01 0.01 0.01 0.01 0.01 0.01 0.00 0.00 0.00 0.01 0.01 0.03 0.04 0.04 0.04 0.04 0.03 0.03 0.03 0.03 0.03 0.02 0.02 0.02 0.02 0.02 0.02 0.02 0.01 0.01 0.01 0.02 0.02 0.02 0.02 0.02
0.00 0.00 0.00 0.00 0.00 0.01 0.01 0.01 0.01 0.01 0.01 0.00 0.00 0.00 0.01 0.01 0.01 0.01 0.02 0.03 0.04 0.04 0.04 0.03 0.02 0.02 0.02 0.03 0.03 0.03 0.03 0.03 0.02 0.02 0.02 0.02 0.02 0.02 0.01 0.01 0.01 0.01 0.01 0.01
0.00 0.00 0.00 0.00 0.01 0.01 0.01 0.01 0.01 0.01 0.01 0.01 0.01 0.01 0.01 0.01 0.02 0.03 0.04 0.04 0.03 0.03 0.02 0.02 0.02 0.02 0.03 0.03 0.02 0.03 0.03 0.02 0.01 0.01 0.02 0.03 0.02 0.02 0.01 0.02 0.02 0.02 0.02 0.02
0.00 0.00 0.01 0.01 0.01 0.01 0.01 0.01 0.01 0.01 0.02 0.02 0.02 0.02 0.02 0.03 0.03 0.03 0.03 0.03 0.02 0.02 0.02 0.02 0.02 0.02 0.02 0.02 0.03 0.03 0.02 0.02 0.01 0.02 0.02 0.02 0.02 0.01 0.02 0.02 0.01 0.01 0.02 0.02
0.01 0.01 0.01 0.01 0.01 0.02 0.02 0.01 0.01 0.00 0.01 0.01 0.02 0.02 0.02 0.02 0.02 0.02 0.02 0.02 0.02 0.02 0.01 0.01 0.01 0.02 0.02 0.02 0.02 0.02 0.02 0.02 0.02 0.02 0.02 0.01 0.01 0.01 0.01 0.01 0.02 0.01 0.01 0.02
0.01 0.01 0.01 0.01 0.01 0.01 0.01 0.01 0.01 0.01 0.00 0.00 0.01 0.01 0.01 0.01 0.01 0.01 0.01 0.01 0.01 0.01 0.01 0.00 0.01 0.01 0.01 0.01 0.01 0.01 0.01 0.01 0.01 0.01 0.01 0.01 0.01 0.01 0.01 0.01 0.01 0.01 0.01 0.01
0.01 0.01 0.01 0.01 0.01 0.01 0.01 0.01 0.00 0.00 0.00 0.00 0.00 0.01 0.01 0.02 0.01 0.01 0.01 0.01 0.01 0.01 0.00 0.00 0.00 0.01 0.01 0.01 0.01 0.01 0.01 0.01 0.01 0.01 0.01 0.01 0.01 0.00 0.00 0.00 0.01 0.01 0.01 0.01
MSLP
1020.60 1020.65 1020.80 1021.05 1021.41 1021.85 1022.32 1022.77 1023.15 1023.42 1023.54 1023.51 1023.33 1023.03 1022.65 1022.21 1021.73 1021.23 1020.72 1020.17 1019.59 1018.95 1018.26 1017.51 1016.73 1015.93 1015.13 1014.36 1013.65 1013.00 1012.42 1011.90 1011.44 1011.03 1010.67 1010.34 1010.06 1009.81 1009.61 1009.45 1009.34 1009.26 1009.22 1009.19
1021.10 1021.22 1021.38 1021.61 1021.90 1022.24 1022.58 1022.91 1023.17 1023.34 1023.42 1023.38 1023.23 1023.00 1022.70 1022.35 1021.95 1021.52 1021.04 1020.52 1019.95 1019.31 1018.61 1017.86 1017.06 1016.25 1015.44 1014.65 1013.89 1013.19 1012.55 1011.97 1011.45 1010.99 1010.60 1010.27 1009.99 1009.78 1009.62 1009.51 1009.42 1009.35 1009.27 1009.19
1021.63 1021.77 1021.94 1022.13 1022.36 1022.60 1022.84 1023.06 1023.22 1023.33 1023.36 1023.32 1023.20 1023.02 1022.79 1022.50 1022.17 1021.78 1021.35 1020.85 1020.28 1019.65 1018.95 1018.19 1017.39 1016.56 1015.71 1014.88 1014.07 1013.29 1012.57 1011.91 1011.31 1010.80 1010.37 1010.04 1009.79 1009.62 1009.52 1009.46 1009.42 1009.37 1009.28 1009.16
1022.12 1022.26 1022.40 1022.55 1022.71 1022.87 1023.03 1023.16 1023.26 1023.31 1023.32 1023.28 1023.19 1023.04 1022.86 1022.62 1022.34 1021.99 1021.59 1021.11 1020.56 1019.93 1019.23 1018.47 1017.66 1016.81 1015.93 1015.04 1014.15 1013.30 1012.48 1011.73 1011.06 1010.48 1010.03 1009.69 1009.47 1009.35 1009.31 1009.31 1009.33 1009.32 1009.24 1009.08
1022.49 1022.59 1022.69 1022.79 1022.89 1022.98 1023.07 1023.14 1023.20 1023.22 1023.22 1023.18 1023.11 1023.00 1022.85 1022.65 1022.40 1022.09 1021.70 1021.24 1020.71 1020.09 1019.40 1018.64 1017.82 1016.95 1016.03 1015.09 1014.14 1013.20 1012.30 1011.46 1010.72 1010.10 1009.62 1009.28 1009.09 1009.03 1009.05 1009.13 1009.20 1009.22 1009.15 1008.97
1022.66 1022.71 1022.75 1022.79 1022.84 1022.89 1022.93 1022.97 1023.00 1023.02 1023.01 1022.99 1022.94 1022.85 1022.72 1022.55 1022.32 1022.02 1021.65 1021.21 1020.69 1020.08 1019.40 1018.65 1017.83 1016.94 1016.00 1015.01 1014.01 1013.01 1012.05 1011.15 1010.36 1009.71 1009.22 1008.90 1008.74 1008.72 1008.81 1008.94 1009.06 1009.11 1009.05 1008.86
1022.61 1022.59 1022.58 1022.58 1022.58 1022.60 1022.63 1022.65 1022.67 1022.69 1022.70 1022.68 1022.64 1022.57 1022.45 1022.29 1022.07 1021.78 1021.42 1020.98 1020.47 1019.88 1019.21 1018.47 1017.65 1016.76 1015.81 1014.81 1013.78 1012.75 1011.76 1010.84 1010.03 1009.37 1008.89 1008.59 1008.47 1008.50 1008.63 1008.81 1008.97 1009.04 1008.98 1008.76
1022.35 1022.28 1022.23 1022.20 1022.18 1022.19 1022.21 1022.23 1022.26 1022.29 1022.30 1022.30 1022.26 1022.19 1022.07 1021.91 1021.68 1021.39 1021.03 1020.59 1020.09 1019.51 1018.86 1018.13 1017.33 1016.45 1015.51 1014.52 1013.49 1012.47 1011.48 1010.57 1009.78 1009.14 1008.69 1008.43 1008.35 1008.42 1008.58 1008.79 1008.96 1009.04 1008.98 1008.74
1021.99 1021.89 1021.81 1021.76 1021.75 1021.75 1021.78 1021.82 1021.86 1021.89 1021.91 1021.90 1021.86 1021.78 1021.65 1021.47 1021.22 1020.92 1020.55 1020.12 1019.61 1019.04 1018.40 1017.70 1016.91 1016.07 1015.15 1014.19 1013.21 1012.22 1011.27 1010.41 1009.67 1009.08 1008.67 1008.45 1008.41 1008.50 1008.69 1008.90 1009.07 1009.15 1009.07 1008.82
1021.62 1021.51 1021.43 1021.39 1021.39 1021.41 1021.45 1021.50 1021.54 1021.58 1021.59 1021.57 1021.51 1021.40 1021.25 1021.04 1020.78 1020.46 1020.08 1019.64 1019.14 1018.57 1017.95 1017.26 1016.51 1015.69 1014.82 1013.91 1012.98 1012.06 1011.19 1010.39 1009.72 1009.20 1008.85 1008.68 1008.67 1008.78 1008.97 1009.18 1009.34 1009.40 1009.31 1009.04
1021.35 1021.25 1021.19 1021.17 1021.19 1021.24 1021.29 1021.35 1021.39 1021.42 1021.41 1021.36 1021.27 1021.14 1020.95 1020.71 1020.42 1020.08 1019.69 1019.24 1018.74 1018.18 1017.57 1016.90 1016.17 1015.40 1014.58 1013.73 1012.87 1012.03 1011.25 1010.55 1009.96 1009.51 1009.23 1009.11 1009.12 1009.24 1009.43 1009.62 1009.76 1009.80 1009.70 1009.43
1021.22 1021.15 1021.13 1021.15 1021.20 1021.27 1021.33 1021.39 1021.42 1021.42 1021.39 1021.30 1021.17 1021.00 1020.78 1020.51 1020.19 1019.83 1019.42 1018.97 1018.46 1017.91 1017.31 1016.66 1015.96 1015.22 1014.45 1013.67 1012.89 1012.14 1011.45 1010.85 1010.36 1010.00 1009.78 1009.71 1009.75 1009.88 1010.05 1010.22 1010.34 1010.37 1010.26 1010.01
1021.22 1021.20 1021.22 1021.28 1021.36 1021.45 1021.52 1021.57 1021.59 1021.55 1021.47 1021.35 1021.18 1020.96 1020.70 1020.40 1020.06 1019.68 1019.27 1018.80 1018.30 1017.75 1017.15 1016.52 1015.85 1015.15 1014.43 1013.71 1013.01 1012.36 1011.77 1011.27 1010.88 1010.61 1010.46 1010.44 1010.51 1010.64 1010.81 1010.97 1011.07 1011.08 1010.98 1010.76
1021.30 1021.32 1021.39 1021.49 1021.60 1021.70 1021.78 1021.81 1021.79 1021.72 1021.60 1021.43 1021.21 1020.95 1020.66 1020.33 1019.98 1019.58 1019.15 1018.69 1018.18 1017.63 1017.04 1016.42 1015.77 1015.11 1014.44 1013.79 1013.18 1012.62 1012.13 1011.74 1011.46 1011.28 1011.21 1011.25 1011.35 1011.51 1011.67 1011.82 1011.91 1011.93 1011.84 1011.65
1021.36 1021.44 1021.55 1021.68 1021.81 1021.92 1021.98 1022.00 1021.95 1021.84 1021.67 1021.46 1021.20 1020.91 1020.58 1020.23 1019.85 1019.45 1019.01 1018.53 1018.02 1017.47 1016.89 1016.28 1015.66 1015.03 1014.42 1013.84 1013.32 1012.86 1012.49 1012.22 1012.04 1011.97 1011.99 1012.09 1012.24 1012.42 1012.60 1012.75 1012.85 1012.87 1012.80 1012.64
1021.36 1021.47 1021.62 1021.77 1021.91 1022.02 1022.07 1022.06 1021.98 1021.84 1021.63 1021.38 1021.09 1020.76 1020.41 1020.03 1019.63 1019.21 1018.76 1018.27 1017.76 1017.21 1016.63 1016.04 1015.45 1014.87 1014.32 1013.82 1013.40 1013.05 1012.80 1012.65 1012.60 1012.64 1012.76 1012.94 1013.15 1013.36 1013.56 1013.72 1013.82 1013.85 1013.80 1013.68
1021.26 1021.40 1021.56 1021.73 1021.87 1021.97 1022.00 1021.97 1021.86 1021.69 1021.46 1021.17 1020.85 1020.50 1020.12 1019.72 1019.30 1018.86 1018.39 1017.89 1017.37 1016.81 1016.25 1015.68 1015.12 1014.59 1014.12 1013.72 1013.40 1013.18 1013.06 1013.04 1013.12 1013.28 1013.50 1013.76 1014.03 1014.30 1014.52 1014.70 1014.81 1014.85 1014.81 1014.71
1021.09 1021.24 1021.41 1021.58 1021.71 1021.79 1021.80 1021.75 1021.62 1021.43 1021.17 1020.87 1020.52 1020.15 1019.75 1019.33 1018.89 1018.43 1017.94 1017.42 1016.88 1016.33 1015.77 1015.23 1014.72 1014.25 1013.86 1013.56 1013.36 1013.27 1013.29 1013.41 1013.61 1013.89 1014.21 1014.55 1014.89 1015.19 1015.45 1015.64 1015.75 1015.80 1015.77 1015.68
1020.93 1021.07 1021.22 1021.36 1021.47 1021.53 1021.53 1021.46 1021.31 1021.11 1020.84 1020.53 1020.18 1019.80 1019.38 1018.95 1018.48 1017.99 1017.48 1016.95 1016.40 1015.85 1015.30 1014.79 1014.33 1013.93 1013.63 1013.43 1013.35 1013.38 1013.53 1013.77 1014.10 1014.48 1014.89 1015.31 1015.70 1016.03 1016.31 1016.51 1016.63 1016.67 1016.64 1016.56
1020.82 1020.94 1021.06 1021.16 1021.24 1021.27 1021.25 1021.16 1021.01 1020.81 1020.55 1020.24 1019.90 1019.51 1019.09 1018.64 1018.17 1017.66 1017.13 1016.58 1016.02 1015.47 1014.94 1014.46 1014.05 1013.72 1013.50 1013.39 1013.42 1013.56 1013.82 1014.17 1014.59 1015.06 1015.54 1016.00 1016.43 1016.79 1017.07 1017.28 1017.39 1017.43 1017.39 1017.31
1020.80 1020.87 1020.95 1021.01 1021.05 1021.05 1021.00 1020.91 1020.77 1020.57 1020.33 1020.05 1019.72 1019.35 1018.94 1018.49 1018.01 1017.49 1016.95 1016.39 1015.83 1015.28 1014.77 1014.32 1013.95 1013.68 1013.53 1013.51 1013.61 1013.84 1014.17 1014.60 1015.08 1015.60 1016.12 1016.62 1017.06 1017.43 1017.72 1017.91 1018.03 1018.06 1018.02 1017.94
1020.86 1020.87 1020.88 1020.89 1020.89 1020.86 1020.80 1020.71 1020.58 1020.41 1020.20 1019.95 1019.65 1019.31 1018.92 1018.49 1018.02 1017.50 1016.96 1016.41 1015.85 1015.31 1014.82 1014.40 1014.07 1013.84 1013.73 1013.76 1013.92 1014.19 1014.57 1015.03 1015.55 1016.09 1016.62 1017.12 1017.56 1017.93 1018.21 1018.41 1018.52 1018.55 1018.53 1018.45
1020.91 1020.86 1020.81 1020.77 1020.72 1020.67 1020.59 1020.51 1020.40 1020.26 1020.09 1019.89 1019.64 1019.35 1019.00 1018.60 1018.15 1017.66 1017.13 1016.59 1016.04 1015.52 1015.05 1014.65 1014.34 1014.13 1014.06 1014.11 1014.28 1014.58 1014.96 1015.43 1015.94 1016.47 1016.99 1017.48 1017.91 1018.27 1018.55 1018.75 1018.88 1018.93 1018.93 1018.88
1020.87 1020.76 1020.66 1020.57 1020.48 1020.40 1020.32 1020.25 1020.17 1020.07 1019.95 1019.80 1019.61 1019.37 1019.07 1018.72 1018.31 1017.85 1017.36 1016.84 1016.32 1015.82 1015.36 1014.97 1014.68 1014.49 1014.41 1014.46 1014.63 1014.91 1015.28 1015.72 1016.21 1016.71 1017.21 1017.68 1018.10 1018.46 1018.74 1018.96 1019.11 1019.20 1019.24 1019.25
1020.67 1020.51 1020.35 1020.22 1020.10 1020.01 1019.93 1019.87 1019.81 1019.76 1019.69 1019.60 1019.47 1019.29 1019.05 1018.75 1018.40 1017.99 1017.53 1017.05 1016.56 1016.09 1015.65 1015.28 1014.99 1014.79 1014.71 1014.75 1014.89 1015.14 1015.47 1015.87 1016.32 1016.79 1017.26 1017.72 1018.13 1018.50 1018.81 1019.07 1019.26 1019.40 1019.50 1019.56
1020.25 1020.05 1019.86 1019.69 1019.56 1019.45 1019.37 1019.33 1019.30 1019.28 1019.25 1019.21 1019.14 1019.02 1018.85 1018.61 1018.31 1017.96 1017.55 1017.12 1016.67 1016.23 1015.82 1015.46 1015.18 1014.98 1014.89 1014.89 1015.01 1015.22 1015.51 1015.87 1016.28 1016.73 1017.18 1017.63 1018.05 1018.44 1018.79 1019.09 1019.35 1019.55 1019.72 1019.85
1019.64 1019.41 1019.20 1019.01 1018.85 1018.74 1018.67 1018.63 1018.61 1018.62 1018.63 1018.63 1018.61 1018.54 1018.43 1018.25 1018.02 1017.72 1017.38 1017.00 1016.60 1016.21 1015.83 1015.50 1015.22 1015.03 1014.92 1014.90 1014.99 1015.16 1015.42 1015.75 1016.14 1016.56 1017.01 1017.47 1017.91 1018.34 1018.73 1019.09 1019.40 1019.67 1019.90 1020.09
Thickness
5659 5666 5668 5669 5672 5673 5667 5661 5654 5660 5664 5673 5678 5680 5681 5682 5680 5679 5677 5675 5674 5670 5668 5666 5665 5663 5661 5659 5656 5654 5650 5647 5645 5643 5641 5639 5637 5634 5632 5630 5628 5625 5622 5619
5654 5662 5663 5662 5666 5668 5667 5666 5662 5662 5663 5676 5678 5677 5675 5674 5674 5672 5671 5670 5669 5667 5664 5661 5660 5658 5655 5653 5651 5648 5645 5642 5640 5638 5635 5633 5631 5628 5626 5624 5622 5619 5616 5614
5634 5646 5651 5645 5659 5662 5662 5666 5663 5657 5663 5669 5668 5669 5668 5668 5668 5667 5667 5665 5663 5661 5660 5658 5656 5654 5651 5649 5646 5643 5640 5638 5635 5633 5630 5628 5626 5622 5619 5617 5615 5612 5610 5608
5626 5632 5625 5647 5665 5666 5661 5662 5665 5664 5665 5666 5666 5666 5666 5665 5662 5661 5661 5659 5658 5656 5655 5654 5652 5649 5647 5643 5640 5637 5634 5632 5630 5627 5624 5622 5619 5616 5613 5610 5608 5605 5603 5601
5617 5617 5625 5645 5658 5659 5653 5650 5658 5658 5659 5660 5659 5656 5655 5659 5659 5657 5657 5656 5653 5651 5649 5647 5645 5643 5639 5636 5632 5629 5627 5625 5623 5620 5617 5614 5612 5609 5607 5604 5601 5599 5597 5595
5614 5613 5615 5639 5657 5661 5652 5639 5653 5655 5653 5651 5649 5637 5641 5651 5651 5651 5650 5650 5647 5644 5642 5639 5637 5635 5631 5627 5624 5622 5621 5620 5617 5614 5611 5608 5605 5603 5600 5597 5594 5592 5590 5588
5610 5609 5618 5641 5652 5653 5632 5636 5651 5650 5649 5646 5641 5640 5643 5644 5643 5643 5642 5642 5640 5637 5633 5631 5629 5626 5622 5619 5617 5616 5615 5613 5610 5607 5605 5602 5599 5596 5593 5589 5586 5584 5581 5579
5604 5603 5614 5642 5643 5637 5637 5645 5646 5645 5644 5641 5639 5638 5637 5636 5634 5633 5631 5632 5630 5627 5624 5622 5621 5618 5614 5611 5611 5609 5607 5604 5602 5599 5598 5595 5591 5588 5585 5582 5578 5575 5571 5569
5614 5619 5632 5637 5639 5642 5641 5639 5639 5638 5637 5635 5632 5630 5629 5627 5625 5624 5623 5622 5620 5617 5615 5613 5612 5610 5606 5605 5603 5600 5597 5594 5592 5590 5588 5586 5582 5579 5576 5573 5570 5567 5564 5561
5612 5620 5627 5631 5633 5636 5636 5635 5635 5633 5631 5628 5625 5624 5620 5618 5616 5615 5613 5612 5610 5608 5606 5603 5602 5601 5599 5597 5595 5592 5588 5585 5583 5580 5578 5576 5574 5572 5568 5565 5562 5559 5556 5553
5607 5615 5619 5624 5626 5628 5628 5628 5626 5625 5623 5620 5618 5615 5613 5610 5608 5606 5604 5601 5600 5599 5596 5594 5593 5591 5590 5589 5587 5583 5580 5577 5574 5571 5568 5566 5563 5561 5560 5557 5555 5552 5549 5546
5604 5612 5610 5614 5619 5622 5620 5619 5618 5616 5613 5612 5610 5608 5605 5601 5599 5597 5594 5592 5591 5589 5587 5585 5583 5582 5581 5580 5578 5575 5571 5568 5565 5563 5560 5557 5554 5551 5550 5549 5547 5545 5543 5540
5611 5614 5611 5613 5613 5614 5613 5613 5612 5610 5607 5604 5602 5600 5597 5593 5590 5588 5585 5583 5582 5580 5578 5576 5574 5572 5571 5571 5569 5566 5563 5561 5558 5555 5552 5549 5546 5542 5539 5537 5536 5534 5533 5531
5608 5607 5603 5604 5604 5606 5605 5605 5603 5601 5599 5597 5594 5591 5588 5585 5582 5579 5576 5574 5573 5571 5569 5567 5565 5564 5563 5562 5560 5557 5555 5553 5550 5546 5544 5541 5537 5534 5531 5528 5525 5523 5522 5521
5600 5599 5597 5598 5597 5596 5596 5594 5591 5589 5588 5587 5585 5583 5580 5576 5573 5571 5568 5566 5564 5562 5560 5558 5557 5555 5555 5553 5551 5548 5546 5543 5540 5537 5535 5532 5529 5525 5522 5519 5516 5513 5511 5510
5591 5590 5589 5588 5587 5586 5585 5584 5582 5579 5578 5578 5576 5574 5572 5570 5565 5562 5560 5558 5555 5553 5551 5550 5549 5548 5546 5544 5542 5539 5537 5535 5532 5528 5525 5522 5519 5516 5513 5510 5507 5504 5502 5500
5580 5578 5578 5578 5578 5578 5577 5577 5576 5574 5571 5569 5568 5566 5563 5560 5555 5552 5550 5549 5547 5545 5544 5542 5541 5540 5538 5536 5534 5531 5528 5526 5524 5519 5515 5513 5510 5507 5504 5501 5499 5496 5494 5493
5577 5577 5576 5574 5572 5570 5570 5569 5568 5566 5564 5563 5561 5558 5554 5550 5547 5544 5542 5540 5538 5536 5535 5534 5532 5531 5530 5527 5525 5522 5519 5517 5514 5511 5508 5505 5502 5499 5496 5493 5490 5488 5485 5484
5571 5570 5569 5568 5566 5564 5562 5561 5560 5559 5557 5555 5551 5548 5545 5542 5538 5535 5533 5531 5529 5527 5526 5525 5524 5522 5519 5518 5516 5513 5511 5508 5505 5503 5500 5498 5494 5491 5488 5485 5482 5480 5477 5475
5564 5563 5562 5561 5560 5558 5555 5554 5552 5550 5548 5546 5543 5539 5535 5532 5529 5527 5524 5522 5521 5520 5519 5517 5515 5513 5511 5509 5508 5505 5502 5500 5497 5494 5491 5488 5485 5482 5479 5476 5474 5471 5469 5466
5555 5555 5554 5552 5551 5550 5549 5547 5544 5541 5539 5537 5534 5531 5527 5524 5521 5519 5516 5513 5512 5512 5510 5509 5506 5504 5503 5502 5500 5497 5494 5491 5488 5485 5482 5479 5476 5474 5471 5468 5466 5463 5461 5458
5544 5544 5544 5543 5542 5540 5539 5538 5536 5534 5531 5528 5526 5523 5519 5515 5512 5510 5508 5506 5505 5504 5502 5500 5498 5497 5496 5495 5491 5488 5485 5483 5479 5476 5473 5471 5468 5465 5463 5460 5457 5455 5453 5450
5534 5534 5534 5533 5532 5530 5528 5527 5526 5525 5522 5519 5516 5513 5510 5507 5504 5501 5499 5498 5497 5496 5493 5491 5491 5490 5489 5485 5482 5479 5477 5474 5471 5468 5465 5463 5460 5458 5455 5453 5450 5447 5445 5443
5525 5524 5524 5523 5521 5519 5517 5516 5516 5514 5513 5510 5508 5505 5502 5498 5495 5494 5493 5492 5490 5488 5485 5483 5483 5482 5479 5474 5472 5469 5467 5465 5462 5460 5457 5455 5452 5449 5447 5445 5442 5440 5437 5435
5516 5515 5514 5513 5511 5509 5508 5506 5505 5503 5502 5500 5498 5496 5494 5492 5489 5487 5485 5483 5482 5479 5476 5475 5474 5472 5468 5465 5463 5460 5458 5456 5454 5451 5449 5446 5444 5441 5439 5437 5434 5432 5430 5428
5507 5506 5505 5504 5502 5500 5499 5497 5494 5493 5492 5490 5488 5486 5485 5483 5481 5479 5476 5474 5472 5470 5467 5464 5463 5461 5458 5456 5454 5452 5450 5448 5445 5443 5440 5438 5436 5433 5431 5429 5427 5425 5423 5421
5498 5497 5495 5494 5493 5492 5490 5488 5486 5485 5483 5482 5479 5478 5476 5474 5472 5469 5467 5464 5462 5459 5457 5455 5453 5452 5449 5447 5445 5443 5441 5439 5436 5434 5432 5430 5428 5426 5424 5422 5420 5418 5416 5414